Regional Weather Roundup
Issued by NWS Albany, NY

Home | Current Version | Previous Version | Text Only | Print | Product List | Glossary On
Versions: 1 2 3 4 5 6 7 8 9 10 11 12 13 14 15 16 17 18 19 20 21 22 23 24 25 26 27 28 29 30 31 32 33 34 35 36 37 38 39 40 41 42 43 44 45 46 47 48 49 50
000
ASUS41 KALY 011710
RWRALY

NEW YORK STATE HOURLY WEATHER ROUNDUP
NATIONAL WEATHER SERVICE ALBANY NY
1200 PM EST SUN MAR 01 2015

NOTE: "FAIR" INDICATES FEW OR NO CLOUDS BELOW 12,000 FEET WITH NO
SIGNIFICANT WEATHER AND/OR NO OBSTRUCTIONS TO VISIBILITY.

NYZ032-033-038>043-046>054-057>066-NYZ062>081-011800-
EAST


CITY           SKY/WX    TMP DP  RH WIND       PRES   REMARKS
ALBANY         LGT SNOW  20  12  71 S14       30.51F WCI   7
GLENS FALLS    CLOUDY    19  10  68 S9        30.49F WCI   8
POUGHKEEPSIE   LGT SNOW  22  18  85 W3        30.57F FOG
NEWBURGH       LGT SNOW  21  18  86 CALM      30.56F
MONTGOMERY     LGT SNOW  22  17  81 CALM      30.53F
WHITE PLAINS   FLURRIES  26  10  50 VRB5      30.55F WCI  20
ISLIP          CLOUDY    30  15  53 SW8       30.58F WCI  22
NEW YORK CITY  FLURRIES  30   7  37 SW15      30.59F WCI  19
CENTRAL PARK   CLOUDY    30   6  36 VRB6G20   30.60F WCI  24
$$

NYZ005>009-017-018-044>046-055-056-011800-
CENTRAL


CITY           SKY/WX    TMP DP  RH WIND       PRES   REMARKS
FULTON         LGT SNOW  23  16  74 VRB6      30.37F WCI  16
SYRACUSE       LGT SNOW  20  17  86 S12       30.38F FOG     WCI   9
ROME           FLURRIES  21  15  78 SE10      30.43F WCI  10
ELMIRA         CLOUDY    23  18  81 S3        30.38F
BINGHAMTON     LGT SNOW  19  15  84 S8        30.35F FOG     WCI   9
MONTICELLO     CLOUDY    18  14  86 S8        30.45F WCI   7
$$

NYZ026>034-041>043-011800-
NORTH


CITY           SKY/WX    TMP DP  RH WIND       PRES   REMARKS
WATERTOWN      CLOUDY    26  16  65 S12       30.38F WCI  16
FORT DRUM      NOT AVBL
MASSENA        MIX PCPN  28   4  35 S9        30.39F WCI  19
SARANAC LAKE   CLOUDY    22  10  60 SW8       30.27F WCI  12
PLATTSBURGH    MIX PCPN  20   8  60 SE8       30.42F WCI  10
$$

NYZ001>004-010>016-019>021-011800-
WEST


CITY           SKY/WX    TMP DP  RH WIND       PRES   REMARKS
NIAGARA FALLS  FLURRIES  23  18  81 CALM      30.32F
BUFFALO        LGT SNOW  25  19  78 W3        30.31F
DUNKIRK        CLOUDY    24  19  81 N7        30.32F WCI  16
JAMESTOWN      CLOUDY    25  21  86 S10       30.26F WCI  15
WELLSVILLE     FLURRIES  25  19  78 S7        30.26F WCI  17
ROCHESTER      LGT SNOW  26  18  71 SW3       30.34F
PENN YAN       CLOUDY    24  15  68 S10       30.34F WCI  14
$$

             KEY
       WCI = WIND CHILL INDEX
       VSB = VISIBILITY
       HX  = HEAT INDEX
$$


USA.gov is the U.S. government's official web portal to all federal, state and local government web resources and services.